Date String (YYYY-MM-DD hh:mm:ss) UTC,Instrument flags,absolute air pressure of the measurement (hPa),sample flow rate (lpm),inlet stack bypass flow (lpm),air temperature of the measurement (°C),ambient temperature measured by the external sensor (°C),aerosol sample conditioner tube jacket temperature (°C),OPC LED temperature (°C),internal box temperature (°C),relative humidity of the measurement (%),span deviation,mass concentration of particles derived from Lorenz-Mie calculation of OPC scattering (μg/m³),mass concentration of particles derived from Lorenz-Mie calculation of OPC scattering (μg/m³),mass concentration of particles derived from Lorenz-Mie calculation of OPC scattering (μg/m³)
DateTimeUTC,F1_M11,P_M11,Q1_M11,Q2_M11,T1_M11,T2_M11,T3_M11,T4_M11,T5_M11,U1_M11,ZSPAN_M11,X2_M11,X0_M11,X1_M11
2024-05-12 00:00:00,SystemResetWarning,0824.9,5.00,000.00,024.2,022.7,000.0,032.6,025.7,023.7,0000.0,0005.24,0017.15,0004.18
2024-05-12 00:01:00,SystemResetWarning,0824.9,5.01,000.00,024.3,023.0,000.0,032.6,026.0,024.6,0000.0,0005.18,0018.19,0004.16
2024-05-12 00:02:00,SystemResetWarning,0824.9,5.01,000.00,024.3,023.3,000.0,032.6,026.1,023.7,0000.0,0005.19,0018.50,0004.15
2024-05-12 00:03:00,SystemResetWarning,0824.9,5.01,000.00,024.4,023.5,000.0,032.6,026.3,023.3,0000.0,0005.18,0018.39,0004.16
2024-05-12 00:04:00,SystemResetWarning,0824.9,5.00,000.00,024.5,023.7,000.0,032.6,026.4,023.2,0000.0,0005.19,0018.41,0004.15
2024-05-12 00:05:00,SystemResetWarning,0824.9,4.98,000.00,024.6,023.9,000.0,032.6,026.5,023.1,0000.0,0005.16,0017.88,0004.15
2024-05-12 00:06:00,SystemResetWarning,0824.8,5.01,000.00,024.6,024.1,000.0,032.6,026.5,023.1,0000.0,0005.07,0016.68,0004.14
2024-05-12 00:07:00,SystemResetWarning,0824.8,5.01,000.00,024.7,024.2,000.0,032.6,026.6,023.4,0000.0,0005.05,0015.05,0004.14
2024-05-12 00:08:00,SystemResetWarning,0824.8,5.01,000.00,024.8,024.3,000.0,032.7,026.7,023.9,0000.0,0005.00,0014.33,0004.12
2024-05-12 00:09:00,SystemResetWarning,0824.7,5.00,000.00,024.8,024.4,000.0,032.7,026.7,024.0,0000.0,0004.92,0013.25,0004.09
2024-05-12 00:10:00,SystemResetWarning,0824.7,4.98,000.00,024.7,023.2,000.0,032.8,026.1,023.8,0000.0,0004.91,0012.16,0004.06
2024-05-12 00:11:00,SystemResetWarning,0824.7,5.01,000.00,024.3,021.0,000.0,032.9,024.9,024.1,0000.0,0004.90,0012.32,0004.03
2024-05-12 00:12:00,SystemResetWarning,0824.7,5.01,000.00,024.0,020.8,000.0,032.9,024.7,024.5,0000.0,0004.88,0012.27,0004.02
2024-05-12 00:13:00,SystemResetWarning,0824.7,5.00,000.00,023.9,021.3,000.0,032.7,024.9,024.6,0000.0,0004.84,0011.83,0004.01
2024-05-12 00:14:00,SystemResetWarning,0824.7,5.00,000.00,023.9,021.7,000.0,032.6,025.2,024.7,0000.0,0004.80,0012.34,0004.00
2024-05-12 00:15:00,SystemResetWarning,0824.7,5.00,000.00,023.9,022.2,000.0,032.5,025.5,025.0,0000.0,0004.83,0012.74,0003.98
2024-05-12 00:16:00,SystemResetWarning,0824.7,5.01,000.00,024.0,022.5,000.0,032.4,025.6,024.4,0000.0,0004.84,0013.86,0003.95
2024-05-12 00:17:00,SystemResetWarning,0824.7,5.00,000.00,024.1,022.9,000.0,032.4,025.8,024.6,0000.0,0004.86,0014.07,0003.93
2024-05-12 00:18:00,SystemResetWarning,0824.7,5.00,000.00,024.2,023.2,000.0,032.4,026.0,024.6,0000.0,0004.89,0014.47,0003.92
2024-05-12 00:19:00,SystemResetWarning,0824.7,5.01,000.00,024.2,023.4,000.0,032.4,026.1,024.3,0000.0,0004.90,0014.80,0003.91
2024-05-12 00:20:00,SystemResetWarning,0824.7,4.99,000.00,024.3,023.6,000.0,032.4,026.3,023.9,0000.0,0004.95,0014.76,0003.91
2024-05-12 00:21:00,SystemResetWarning,0824.7,5.00,000.00,024.4,023.8,000.0,032.4,026.3,023.9,0000.0,0004.95,0014.77,0003.92
2024-05-12 00:22:00,SystemResetWarning,0824.7,5.00,000.00,024.5,024.0,000.0,032.5,026.4,024.0,0000.0,0004.90,0014.70,0003.91
2024-05-12 00:23:00,SystemResetWarning,0824.7,4.99,000.00,024.6,024.1,000.0,032.5,026.5,024.1,0000.0,0004.91,0014.27,0003.89
2024-05-12 00:24:00,SystemResetWarning,0824.7,5.01,000.00,024.6,024.2,000.0,032.5,026.6,023.8,0000.0,0004.88,0014.05,0003.88
2024-05-12 00:25:00,SystemResetWarning,0824.7,5.01,000.00,024.7,024.4,000.0,032.6,026.7,022.9,0000.0,0004.84,0013.30,0003.86
2024-05-12 00:26:00,SystemResetWarning,0824.7,4.99,000.00,024.8,024.5,000.0,032.6,026.7,023.0,0000.0,0004.78,0012.78,0003.86
2024-05-12 00:27:00,SystemResetWarning,0824.7,4.99,000.00,024.8,024.3,000.0,032.7,026.6,022.5,0000.0,0004.74,0011.50,0003.86
2024-05-12 00:28:00,SystemResetWarning,0824.7,5.01,000.00,024.6,022.5,000.0,032.8,025.6,023.2,0000.0,0004.71,0011.39,0003.85
2024-05-12 00:29:00,SystemResetWarning,0824.6,5.01,000.00,024.3,021.9,000.0,032.8,025.3,023.2,0000.0,0004.66,0011.66,0003.84
2024-05-12 00:30:00,SystemResetWarning,0824.7,5.01,000.00,024.2,022.2,000.0,032.8,025.4,022.8,0000.0,0004.62,0011.52,0003.86
2024-05-12 00:31:00,SystemResetWarning,0824.7,4.99,000.00,024.2,022.5,000.0,032.7,025.6,022.7,0000.0,0004.59,0011.77,0003.88
2024-05-12 00:32:00,SystemResetWarning,0824.7,5.01,000.00,024.3,022.9,000.0,032.6,025.9,022.7,0000.0,0004.56,0011.94,0003.89
2024-05-12 00:33:00,SystemResetWarning,0824.7,5.01,000.00,024.3,023.2,000.0,032.6,026.1,022.8,0000.0,0004.57,0012.41,0003.91
2024-05-12 00:34:00,SystemResetWarning,0824.7,5.00,000.00,024.4,023.4,000.0,032.6,026.2,022.3,0000.0,0004.55,0012.02,0003.92
2024-05-12 00:35:00,SystemResetWarning,0824.7,4.99,000.00,024.5,023.7,000.0,032.6,026.3,021.9,0000.0,0004.61,0012.06,0003.95
2024-05-12 00:36:00,SystemResetWarning,0824.7,5.00,000.00,024.6,023.9,000.0,032.6,026.5,022.0,0000.0,0004.65,0012.43,0003.98
2024-05-12 00:37:00,SystemResetWarning,0824.7,5.02,000.00,024.6,024.1,000.0,032.6,026.5,022.0,0000.0,0004.71,0013.06,0003.98
2024-05-12 00:38:00,SystemResetWarning,0824.7,5.00,000.00,024.7,024.2,000.0,032.7,026.6,022.1,0000.0,0004.76,0013.48,0004.01
2024-05-12 00:39:00,SystemResetWarning,0824.7,4.99,000.00,024.8,024.3,000.0,032.7,026.7,022.2,0000.0,0004.80,0013.61,0004.03
2024-05-12 00:40:00,SystemResetWarning,0824.7,5.00,000.00,024.9,024.4,000.0,032.7,026.8,022.0,0000.0,0004.78,0012.87,0004.03
2024-05-12 00:41:00,SystemResetWarning,0824.7,5.00,000.00,024.8,023.0,000.0,032.8,026.1,022.2,0000.0,0004.79,0012.84,0004.00
2024-05-12 00:42:00,SystemResetWarning,0824.5,5.00,000.00,024.3,020.9,000.0,032.9,025.0,023.2,0000.0,0004.77,0011.90,0003.96
2024-05-12 00:43:00,SystemResetWarning,0824.5,5.01,000.00,024.0,020.8,000.0,032.9,024.8,023.9,0000.0,0004.74,0012.16,0003.92
2024-05-12 00:44:00,SystemResetWarning,0824.5,5.00,000.00,023.9,021.3,000.0,032.7,025.0,023.9,0000.0,0004.73,0012.39,0003.88
2024-05-12 00:45:00,SystemResetWarning,0824.5,4.99,000.00,023.9,021.7,000.0,032.6,025.2,023.5,0000.0,0004.70,0012.08,0003.84
2024-05-12 00:46:00,SystemResetWarning,0824.5,5.00,000.00,024.0,022.2,000.0,032.5,025.5,023.6,0000.0,0004.67,0012.08,0003.82
2024-05-12 00:47:00,SystemResetWarning,0824.5,5.00,000.00,024.0,022.6,000.0,032.4,025.7,023.5,0000.0,0004.67,0012.48,0003.78
2024-05-12 00:48:00,SystemResetWarning,0824.5,5.01,000.00,024.1,022.9,000.0,032.4,025.9,023.2,0000.0,0004.63,0011.95,0003.76
2024-05-12 00:49:00,SystemResetWarning,0824.5,5.01,000.00,024.2,023.2,000.0,032.4,026.0,023.3,0000.0,0004.57,0011.67,0003.73
2024-05-12 00:50:00,SystemResetWarning,0824.5,4.99,000.00,024.3,023.4,000.0,032.4,026.2,023.2,0000.0,0004.56,0011.81,0003.71
2024-05-12 00:51:00,SystemResetWarning,0824.5,4.99,000.00,024.4,023.7,000.0,032.4,026.3,023.0,0000.0,0004.57,0012.36,0003.71
2024-05-12 00:52:00,SystemResetWarning,0824.7,5.00,000.00,024.4,023.8,000.0,032.4,026.4,022.7,0000.0,0004.56,0012.20,0003.71
2024-05-12 00:53:00,SystemResetWarning,0824.7,5.01,000.00,024.5,024.0,000.0,032.5,026.5,022.4,0000.0,0004.55,0011.98,0003.71
2024-05-12 00:54:00,SystemResetWarning,0824.7,5.02,000.00,024.6,024.2,000.0,032.5,026.6,022.6,0000.0,0004.57,0011.35,0003.72
2024-05-12 00:55:00,SystemResetWarning,0824.7,5.00,000.00,024.7,024.3,000.0,032.6,026.7,023.2,0000.0,0004.57,0010.68,0003.74
2024-05-12 00:56:00,SystemResetWarning,0824.7,5.00,000.00,024.8,024.4,000.0,032.6,026.7,023.0,0000.0,0004.56,0010.68,0003.74
2024-05-12 00:57:00,SystemResetWarning,0824.7,4.99,000.00,024.8,024.1,000.0,032.7,026.6,022.5,0000.0,0004.57,0010.62,0003.73
2024-05-12 00:58:00,SystemResetWarning,0824.6,5.00,000.00,024.5,022.3,000.0,032.8,025.6,022.7,0000.0,0004.53,0010.79,0003.72
2024-05-12 00:59:00,SystemResetWarning,0824.5,5.02,000.00,024.3,021.9,000.0,032.8,025.3,023.2,0000.0,0004.54,0011.59,0003.72
